Weather Roundup
Issued by NWS

Home | Current Version | Previous Version | Text Only | Print | Product List | Glossary On
Versions: 1 2 3 4 5 6 7 8 9 10 11 12 13 14 15 16 17 18 19 20 21 22 23 24 25 26 27 28 29 30 31 32 33 34 35 36 37 38 39 40 41 42 43 44 45 46 47 48 49 50
000
NZUS93 KARX 190510
HRRWXR

CURRENT HOURLY OBSERVATIONS ACROSS
MUCH OF THE UPPER MISSISSIPPI VALLEY
NATIONAL WEATHER SERVICE LA CROSSE WI
1200 AM CDT SUN APR 19 2015


...SOUTHEAST MINNESOTA...


CITY           SKY/WX    TMP DP  RH WIND       PRES   REMARKS
ROCHESTER      LGT RAIN  53  44  71 E13       29.90F
ROCHESTER/MAYO CLOUDY    55  46  72 E9        29.90F
WINONA         CLOUDY    55  36  47 SE5       29.95R
AUSTIN         CLOUDY    55  48  76 E15G22    29.84F
ALBERT LEA     DRIZZLE   55  50  82 E13       29.82F
DODGE CENTER   DRIZZLE   55  48  76 E16       29.87F
PRESTON        LGT RAIN  55  43  63 SE6       29.92F
OWATONNA       CLOUDY    55  48  76 E14       29.84F
FARIBAULT      CLOUDY    54  52  94 E10G17    29.85F
$$

...ELSEWHERE IN MINNESOTA...


CITY           SKY/WX    TMP DP  RH WIND       PRES   REMARKS
MINNEAPOLIS    LGT RAIN  54  47  77 E20       29.88F
INTNL FALLS    CLOUDY    47  24  40 SE14      29.93F
DULUTH         CLOUDY    40  27  59 E14       29.97F WCI  32
RED WING       LGT RAIN  52  45  76 E7        29.92F
REDWOOD FALLS  CLOUDY    57  55  93 SE16      29.79F
MANKATO        CLOUDY    55  46  71 E22       29.80F
WORTHINGTON    CLOUDY    54  52  94 SE9       29.80F
FAIRMONT       CLOUDY    55  45  67 SE10      29.81S
$$

...SOUTHWEST WISCONSIN...


CITY           SKY/WX    TMP DP  RH WIND       PRES   REMARKS
LA CROSSE      CLOUDY    59  26  28 S5        29.93S
PRAIRIE DU CHI CLOUDY    61  32  32 S5        29.93R
BOSCOBEL       CLOUDY    58  32  37 NE6       29.93F
LONE ROCK      CLOUDY    54  29  38 E15       29.94F
PLATTEVILLE    CLOUDY    55  31  39 E14       29.93S
FORT MC COY    CLOUDY    54  25  32 E13G18    29.96S
CAMP DOUGLAS   MOCLDY    50  27  41 E9        29.96F
VIROQUA        FAIR      53  29  40 E20       29.92F
WIS DELLS      MOCLDY    48  26  42 E12       29.97F
$$

...ELSEWHERE IN WISCONSIN...


CITY           SKY/WX    TMP DP  RH WIND       PRES   REMARKS
MILWAUKEE      PTCLDY    43  31  62 NE6       30.02F
MADISON        MOCLDY    49  30  48 E5        29.97F
GREEN BAY      CLEAR     47  29  49 E9        30.07S
EAU CLAIRE     LGT RAIN  53  23  31 E9        29.96R
BLACK RVR FLS  FAIR      54  21  28 E10G17    29.95F
MEDFORD        CLOUDY    48  16  27 E13G20    30.00F
WAUSAU         MOCLDY    49  17  28 E17G24    30.00F
WIS RAPIDS     MOCLDY    49  19  30 E12G22    30.02F
MARSHFIELD     CLOUDY    49  21  33 E15       29.99F
RICE LAKE      CLOUDY    54  19  24 SE13      29.98S
$$

...NORTHEAST IOWA...


CITY           SKY/WX    TMP DP  RH WIND       PRES   REMARKS
DECORAH        LGT RAIN  52  46  82 SE13      29.94S
MASON CITY     CLOUDY    57  32  38 SE14      29.84F
CHARLES CITY   CLOUDY    57  55  94 E17       29.85F
OELWEIN        DRIZZLE   55  50  82 E14       29.86F
$$

...ELSEWHERE IN IOWA...


CITY           SKY/WX    TMP DP  RH WIND       PRES   REMARKS
DES MOINES     CLOUDY    60  57  89 SE9       29.83R
IOWA CITY      CLOUDY    59  56  89 NE8       29.85F
FORT DODGE     CLOUDY    57  54  88 E12       29.82S
$$

...NORTHERN ILLINOIS...


CITY           SKY/WX    TMP DP  RH WIND       PRES   REMARKS
CHICAGO-OHARE  CLOUDY    50  35  56 E5        29.97F
CHICAGO-MIDWAY CLOUDY    56  38  50 E12       29.97F
MOLINE         CLOUDY    58  41  53 E13       29.88F
ROCKFORD       MOCLDY    54  31  41 E17G25    29.95F
PEORIA         CLOUDY    63  47  55 E12       29.88F
$$

NOTE: "FAIR" INDICATES FEW OR NO CLOUDS BELOW 12,000 FEET WITH NO
SIGNIFICANT WEATHER AND/OR OBSTRUCTIONS TO VISIBILITY. WIND
SPEEDS ARE IN MILES-PER-HOUR.



USA.gov is the U.S. government's official web portal to all federal, state and local government web resources and services.